Weather History for Pensacola NAS, FL

Change the Weather History Date:

Thursday, August 14, 2014

  Actual Average Record
Temperature  
Mean Temperature 80 °F -  
Max Temperature 90 °F 87 °F 96 °F (2006)
Min Temperature 70 °F 72 °F 61 °F (2004)
Cooling Degree Days 14    
Growing Degree Days 30 (Base 50)    
Moisture  
Dew Point 68 °F    
Average Humidity 68    
Maximum Humidity 90    
Minimum Humidity 48    
Precipitation  
Precipitation 0.00 in - - ()
Sea Level Pressure  
Sea Level Pressure 29.99 in    
Wind  
Wind Speed 6 mph (NW)    
Max Wind Speed 13 mph    
Max Gust Speed -    
Visibility 10 miles    
Events      
Averages and records for this station are not official NWS values.
T = Trace of Precipitation, MM = Missing Value Source: NWS Daily Summary

Daily Weather History Graph

Daily Weather History Graph

Search for Another Location

Airport:

Trip Planner

Search our weather history database for the weather conditions in past years. The results will help you decide how hot, cold, wet, or windy it might be!

Date:

Astronomy

Aug. 14, 2014 Rise Set
Actual Time 6:15 AM CDT 7:31 PM CDT
Civil Twilight 5:50 AM CDT 7:57 PM CDT
Nautical Twilight 5:20 AM CDT 8:27 PM CDT
Astronomical Twilight 4:48 AM CDT 8:58 PM CDT
Moon 10:19 PM CDT (8/14) 10:29 AM CDT (8/14)
Length of Visible Light 14h 06m
Length of Day
13h 16m
Waning Gibbous, 79% of the Moon is Illuminated
Aug 14
Waning Gibbous
Aug 17
Last Quarter
Aug 25
New
Sep 2
First Quarter
Sep 8
Full

Hourly Weather History & Observations

Time (CDT) Temp. Heat Index Dew Point Humidity Pressure Visibility Wind Dir Wind Speed Gust Speed Precip Events Conditions
12:56 AM 75.9 °F - 70.0 °F 82% 29.98 in 10.0 mi North 3.5 mph - N/A   Clear
1:56 AM 75.0 °F - 69.1 °F 82% 29.97 in 10.0 mi North 3.5 mph - N/A   Clear
2:56 AM 73.0 °F - 68.0 °F 84% 29.97 in 10.0 mi NNW 3.5 mph - N/A   Clear
3:56 AM 72.0 °F - 66.0 °F 81% 29.98 in 10.0 mi North 4.6 mph - N/A   Clear
4:56 AM 71.1 °F - 64.0 °F 78% 29.98 in 10.0 mi North 5.8 mph - N/A   Clear
5:56 AM 70.0 °F - 64.0 °F 81% 29.99 in 10.0 mi North 3.5 mph - N/A   Mostly Cloudy
6:56 AM 71.1 °F - 64.0 °F 78% 30.01 in 10.0 mi NNW 4.6 mph - N/A   Scattered Clouds
7:56 AM 77.0 °F - 64.9 °F 66% 30.02 in 10.0 mi NE 4.6 mph - N/A   Scattered Clouds
8:56 AM 82.0 °F 84.1 °F 66.0 °F 58% 30.01 in 10.0 mi North 4.6 mph - N/A   Scattered Clouds
9:56 AM 86.0 °F 87.3 °F 64.0 °F 48% 30.02 in 10.0 mi ENE 4.6 mph - N/A   Mostly Cloudy
10:56 AM 88.0 °F 90.3 °F 66.0 °F 48% 30.04 in 10.0 mi East 5.8 mph - N/A   Mostly Cloudy
11:56 AM 89.1 °F 92.1 °F 66.9 °F 48% 30.02 in 10.0 mi SSE 9.2 mph - N/A   Mostly Cloudy
12:56 PM 89.1 °F 94.1 °F 70.0 °F 53% 30.00 in 10.0 mi South 12.7 mph - N/A   Mostly Cloudy
1:56 PM 88.0 °F 91.4 °F 68.0 °F 51% 29.99 in 10.0 mi SSE 10.4 mph - N/A   Mostly Cloudy
2:56 PM 89.1 °F 92.9 °F 68.0 °F 50% 29.97 in 10.0 mi South 9.2 mph - N/A   Mostly Cloudy
3:56 PM 89.1 °F 94.1 °F 70.0 °F 53% 29.96 in 10.0 mi SSW 11.5 mph - N/A   Mostly Cloudy
4:06 PM 88.0 °F 93.8 °F 71.1 °F 57% 29.95 in 10.0 mi South 12.7 mph - N/A   Mostly Cloudy
4:56 PM 86.0 °F 91.5 °F 71.1 °F 61% 29.96 in 10.0 mi SSW 12.7 mph - N/A   Mostly Cloudy
5:56 PM 87.1 °F 93.6 °F 72.0 °F 61% 29.95 in 10.0 mi SW 10.4 mph - N/A   Mostly Cloudy
6:56 PM 82.9 °F 88.8 °F 73.0 °F 72% 29.95 in 10.0 mi WSW 5.8 mph - N/A   Mostly Cloudy
7:56 PM 81.0 °F 84.4 °F 70.0 °F 69% 29.97 in 10.0 mi West 4.6 mph - N/A   Mostly Cloudy
8:56 PM 80.1 °F 83.2 °F 70.0 °F 71% 29.97 in 10.0 mi West 4.6 mph - N/A   Scattered Clouds
9:56 PM 75.9 °F - 71.1 °F 85% 29.99 in 10.0 mi NNW 3.5 mph - N/A   Scattered Clouds
10:56 PM 75.0 °F - 71.1 °F 87% 29.99 in 10.0 mi NW 3.5 mph - N/A   Scattered Clouds
11:56 PM 73.0 °F - 70.0 °F 90% 29.99 in 10.0 mi Calm Calm - N/A   Clear